Kalamazoo, MI

2:04 PM EDT on March 29, 2017 (GMT -0400)
Kalamazoo-Battle Creek International

Weather History for KAZO - January, 2010

Change the Weather History Date:

Monday, January 11, 2010

  Actual Average Record
Temperature  
Mean Temperature 22 °F 24 °F  
Max Temperature 28 °F 31 °F 57 °F (1975)
Min Temperature 15 °F 18 °F -11 °F (1982)
Degree Days  
Heating Degree Days 44 41  
Month to date heating degree days 443  
Since 1 July heating degree days 2894  
Cooling Degree Days 0 0  
Month to date cooling degree days 0  
Year to date cooling degree days 0  
Moisture  
Dew Point 16 °F    
Average Humidity 76    
Maximum Humidity 86    
Minimum Humidity 64    
Precipitation  
Precipitation 0.00 in 0.06 in 0.60 in (2013)
Month to date precipitation 0.66  
Year to date precipitation 0.66  
Sea Level Pressure  
Sea Level Pressure 30.13 in    
Wind  
Wind Speed 10 mph (WNW)    
Max Wind Speed 14 mph    
Max Gust Speed -    
Visibility 7 miles    
Events Snow    
T = Trace of Precipitation, MM = Missing Value Source: NWS Daily Summary

Daily Weather History Graph

Daily Weather History Graph

Search for Another Location

Airport or City:

Trip Planner

Search our weather history database for the weather conditions in past years. The results will help you decide how hot, cold, wet, or windy it might be!

Date:

Astronomy

Jan. 11, 2010 Rise Set
Actual Time 8:09 AM EST 5:30 PM EST
Civil Twilight 7:38 AM EST 6:01 PM EST
Nautical Twilight 7:03 AM EST 6:36 PM EST
Astronomical Twilight 6:30 AM EST 7:10 PM EST
Moon 5:25 AM EST (1/11) 2:17 PM EST (1/11)
Length of Visible Light 10h 23m
Length of Day
9h 20m
Waning Crescent, 12% of the Moon is Illuminated
Jan 11
Waning Crescent
Jan 15
New
Jan 23
First Quarter
Jan 30
Full
Feb 5
Last Quarter

Hourly Weather History & Observations

Time (EST) Temp. Windchill Dew Point Humidity Pressure Visibility Wind Dir Wind Speed Gust Speed Precip Events Conditions
12:53 AM 15.1 °F 0.5 °F 5.0 °F 64% 30.15 in 10.0 mi SSW 13.8 mph - N/A   Overcast
1:53 AM 15.1 °F 2.5 °F 6.1 °F 68% 30.13 in 10.0 mi SSW 10.4 mph - N/A   Overcast
2:53 AM 16.0 °F 3.6 °F 7.0 °F 68% 30.11 in 10.0 mi SSW 10.4 mph - N/A   Overcast
3:53 AM 17.1 °F 5.0 °F 8.1 °F 68% 30.08 in 10.0 mi SSW 10.4 mph - N/A   Overcast
4:53 AM 17.1 °F 5.0 °F 9.0 °F 71% 30.07 in 10.0 mi SSW 10.4 mph - N/A   Overcast
5:53 AM 18.0 °F 6.9 °F 10.0 °F 71% 30.06 in 10.0 mi SW 9.2 mph - N/A   Overcast
6:53 AM 19.0 °F 7.5 °F 10.9 °F 71% 30.06 in 10.0 mi SSW 10.4 mph - N/A   Overcast
7:53 AM 19.0 °F 9.0 °F 12.0 °F 74% 30.07 in 9.0 mi SSW 8.1 mph - N/A   Overcast
8:45 AM 19.4 °F 10.4 °F 12.2 °F 74% 30.02 in 2.0 mi SW 6.9 mph - 0.00 in Snow Light Snow
8:53 AM 19.0 °F 9.0 °F 12.9 °F 77% 30.08 in 1.5 mi SW 8.1 mph - 0.00 in Snow Light Snow
9:53 AM 19.0 °F 9.0 °F 14.0 °F 81% 30.08 in 1.5 mi SW 8.1 mph - 0.00 in Snow Light Snow
10:53 AM 19.9 °F 12.1 °F 15.1 °F 81% 30.10 in 3.0 mi WSW 5.8 mph - 0.00 in Snow Light Snow
11:19 AM 19.4 °F 14.3 °F 15.8 °F 86% 30.05 in 5.0 mi WSW 3.5 mph - 0.00 in Snow Light Snow
11:53 AM 23.0 °F 13.9 °F 17.1 °F 78% 30.10 in 7.0 mi WNW 8.1 mph - 0.00 in Snow Light Snow
12:15 PM 24.8 °F 16.1 °F 17.6 °F 74% 30.05 in 8.0 mi WNW 8.1 mph - 0.00 in Snow Light Snow
12:53 PM 24.1 °F 14.4 °F 17.1 °F 75% 30.09 in 9.0 mi WNW 9.2 mph - 0.00 in   Mostly Cloudy
1:01 PM 24.8 °F 16.9 °F 17.6 °F 74% 30.04 in 9.0 mi WNW 6.9 mph - N/A   Mostly Cloudy
1:53 PM 26.1 °F 16.8 °F 18.0 °F 71% 30.07 in 9.0 mi NW 9.2 mph - N/A   Mostly Cloudy
2:53 PM 28.0 °F 20.8 °F 19.0 °F 69% 30.08 in 10.0 mi WNW 6.9 mph - N/A   Overcast
3:53 PM 28.9 °F 19.8 °F 21.0 °F 72% 30.10 in 10.0 mi NW 10.4 mph - N/A   Overcast
4:51 PM 28.4 °F 18.0 °F 19.4 °F 69% 30.09 in 10.0 mi North 12.7 mph - N/A   Overcast
4:53 PM 28.9 °F 18.6 °F 19.9 °F 69% 30.14 in 10.0 mi North 12.7 mph - N/A   Overcast
5:53 PM 28.0 °F 18.1 °F 21.9 °F 78% 30.17 in 2.0 mi North 11.5 mph - 0.00 in Snow Light Snow
5:55 PM 28.4 °F 18.5 °F 21.2 °F 74% 30.13 in 2.0 mi NNW 11.5 mph - 0.00 in Snow Light Snow
6:39 PM 26.6 °F 16.8 °F 23.0 °F 86% 30.16 in 1.5 mi NNE 10.4 mph - 0.00 in Snow Light Snow
6:53 PM 26.1 °F 20.5 °F 21.9 °F 84% 30.21 in 1.5 mi NE 4.6 mph - 0.00 in Snow Light Snow
7:03 PM 24.8 °F 15.3 °F 21.2 °F 86% 30.17 in 3.0 mi NNE 9.2 mph - 0.00 in Snow Light Snow
7:10 PM 24.8 °F 16.1 °F 19.4 °F 80% 30.18 in 6.0 mi NNE 8.1 mph - 0.00 in Snow Light Snow
7:33 PM 24.8 °F 16.9 °F 19.4 °F 80% 30.20 in 10.0 mi North 6.9 mph - 0.00 in   Overcast
7:41 PM 24.8 °F 15.3 °F 19.4 °F 80% 30.20 in 8.0 mi NNE 9.2 mph - 0.00 in   Overcast
7:53 PM 25.0 °F 16.3 °F 19.0 °F 78% 30.25 in 8.0 mi North 8.1 mph - 0.00 in   Overcast
8:53 PM 21.9 °F 14.5 °F 18.0 °F 85% 30.28 in 9.0 mi North 5.8 mph - N/A   Overcast
9:53 PM 21.9 °F 11.7 °F 18.0 °F 85% 30.29 in 9.0 mi North 9.2 mph - N/A   Mostly Cloudy
10:53 PM 19.9 °F 9.3 °F 16.0 °F 85% 30.31 in 8.0 mi North 9.2 mph - 0.00 in   Overcast
11:53 PM 18.0 °F 7.7 °F 14.0 °F 84% 30.31 in 8.0 mi North 8.1 mph - N/A   Clear